{"data":{"norad_id":60334,"epoch":"2026-05-25T02:49:08.724576Z","epoch_age_seconds":75087,"freshness":"FRESH","line1":"1 60334U 24136F   26145.11746209  .00000166  00000+0  17716-4 0  9998","line2":"2 60334  53.1606  80.8338 0001167  87.9785 272.1349 15.30195167101365","mean_motion":15.30195167,"eccentricity":0.0001167,"inclination_deg":53.1606,"raan_deg":80.8338,"arg_perigee_deg":87.9785,"mean_anomaly_deg":272.1349,"bstar":1.7716e-5,"rev_number":10136,"period_min":94.10564293071,"perigee_km":474.42971205361,"apogee_km":476.02928779469,"semimajor_km":6853.3664999242,"source":"CELESTRAK","updated_at":"2026-05-25T13:38:19.233701Z"}}